Whitefield, NH

10:59 PM EDT on August 22, 2017 (GMT -0400)
Mount Washington Regional

Weather History for KHIE - September, 2013

Change the Weather History Date:

Sunday, September 1, 2013

  Actual Average Record
Temperature  
Mean Temperature 74 °F -  
Max Temperature 82 °F 73 °F 87 °F (2000)
Min Temperature 66 °F 43 °F 34 °F (2002)
Cooling Degree Days 9    
Growing Degree Days 24 (Base 50)    
Moisture  
Dew Point 65 °F    
Average Humidity 84    
Maximum Humidity 94    
Minimum Humidity 49    
Precipitation  
Precipitation 1.07 in - - ()
Sea Level Pressure  
Sea Level Pressure 29.85 in    
Wind  
Wind Speed 1 mph (NE)    
Max Wind Speed 10 mph    
Max Gust Speed 17 mph    
Visibility 6 miles    
Events Rain , Thunderstorm    
Averages and records for this station are not official NWS values.
T = Trace of Precipitation, MM = Missing Value Source: NWS Daily Summary

Daily Weather History Graph

Daily Weather History Graph

Search for Another Location

Airport or City:

Trip Planner

Search our weather history database for the weather conditions in past years. The results will help you decide how hot, cold, wet, or windy it might be!

Date:

Astronomy

Sep. 01, 2013 Rise Set
Actual Time 6:09 AM EDT 7:22 PM EDT
Civil Twilight 5:39 AM EDT 7:51 PM EDT
Nautical Twilight 5:03 AM EDT 8:27 PM EDT
Astronomical Twilight 4:25 AM EDT 9:05 PM EDT
Moon 2:22 AM EDT (9/1) 5:02 PM EDT (9/1)
Length of Visible Light 14h 12m
Length of Day
13h 12m
Waning Crescent, 14% of the Moon is Illuminated
Sep 1
Waning Crescent
Sep 5
New
Sep 12
First Quarter
Sep 19
Full
Sep 26
Last Quarter

Hourly Weather History & Observations

Time (EDT) Temp. Heat Index Dew Point Humidity Pressure Visibility Wind Dir Wind Speed Gust Speed Precip Events Conditions
12:52 AM 68.0 °F - 66.0 °F 93% 29.79 in 1.0 mi Calm Calm - 0.00 in   Overcast
1:00 AM 68.0 °F - 66.2 °F 94% 29.81 in 1.5 mi Calm Calm - N/A   Overcast
1:38 AM 68.0 °F - 66.2 °F 94% 29.81 in 1.0 mi Calm Calm - 0.16 in Rain Heavy Rain
1:47 AM 68.0 °F - 66.2 °F 94% 29.81 in 0.8 mi Calm Calm - 0.26 in Rain Rain
1:52 AM 68.0 °F - 64.9 °F 90% 29.79 in 0.8 mi WNW 4.6 mph - 0.35 in Rain Heavy Rain
1:56 AM 68.0 °F - 64.4 °F 88% 29.80 in 0.8 mi Calm Calm - 0.07 in Rain Heavy Rain
2:06 AM 68.0 °F - 66.2 °F 94% 29.81 in 0.8 mi Calm Calm - 0.30 in Rain Heavy Rain
2:18 AM 68.0 °F - 66.2 °F 94% 29.81 in 1.0 mi Calm Calm - 0.45 in Rain Rain
2:25 AM 68.0 °F - 66.2 °F 94% 29.80 in 0.8 mi SE 3.5 mph - 0.65 in Rain , Thunderstorm Heavy Rain
2:33 AM 68.0 °F - 66.2 °F 94% 29.81 in 1.2 mi Calm Calm - 0.70 in Rain , Thunderstorm Rain
2:40 AM 68.0 °F - 66.2 °F 94% 29.80 in 2.5 mi Calm Calm - 0.72 in Rain Rain
2:46 AM 68.0 °F - 66.2 °F 94% 29.80 in 3.0 mi Calm Calm - 0.72 in Rain Light Rain
2:52 AM 68.0 °F - 66.0 °F 93% 29.80 in 5.0 mi Calm Calm - 0.72 in Rain Light Rain
3:52 AM 68.0 °F - 66.0 °F 93% 29.81 in 8.0 mi Calm Calm - 0.00 in   Overcast
4:04 AM 68.0 °F - 66.2 °F 94% 29.82 in 7.0 mi Calm Calm - N/A   Overcast
4:15 AM 68.0 °F - 66.2 °F 94% 29.83 in 7.0 mi Calm Calm - N/A   Overcast
4:25 AM 68.0 °F - 66.2 °F 94% 29.84 in 8.0 mi Calm Calm - N/A   Overcast
4:41 AM 68.0 °F - 66.2 °F 94% 29.84 in 6.0 mi Calm Calm - N/A   Overcast
4:48 AM 68.0 °F - 66.2 °F 94% 29.84 in 6.0 mi Calm Calm - 0.00 in Rain Light Rain
4:52 AM 68.0 °F - 66.0 °F 93% 29.83 in 6.0 mi Calm Calm - 0.00 in Rain Light Rain
5:06 AM 68.0 °F - 66.2 °F 94% 29.84 in 6.0 mi Calm Calm - 0.00 in   Overcast
5:29 AM 68.0 °F - 66.2 °F 94% 29.84 in 4.0 mi Calm Calm - 0.00 in   Overcast
5:52 AM 68.0 °F - 66.0 °F 93% 29.84 in 4.0 mi Calm Calm - 0.00 in Rain Light Rain
6:03 AM 68.0 °F - 64.4 °F 88% 29.85 in 2.5 mi Calm Calm - 0.00 in   Mostly Cloudy
6:07 AM 66.2 °F - 64.4 °F 94% 29.85 in 1.0 mi Calm Calm - 0.00 in   Mostly Cloudy
6:17 AM 66.2 °F - 64.4 °F 94% 29.85 in 2.0 mi Calm Calm - 0.00 in   Mostly Cloudy
6:23 AM 66.2 °F - 64.4 °F 94% 29.85 in 1.0 mi Calm Calm - 0.00 in   Mostly Cloudy
6:30 AM 66.2 °F - 64.4 °F 94% 29.85 in 0.8 mi Calm Calm - 0.00 in   Overcast
6:35 AM 66.2 °F - 64.4 °F 94% 29.85 in 1.5 mi Calm Calm - 0.00 in   Overcast
6:43 AM 66.2 °F - 64.4 °F 94% 29.86 in 3.0 mi Calm Calm - 0.00 in   Overcast
6:52 AM 66.9 °F - 64.9 °F 93% 29.86 in 4.0 mi Calm Calm - 0.00 in   Overcast
7:06 AM 66.2 °F - 64.4 °F 94% 29.87 in 2.0 mi Calm Calm - N/A   Mostly Cloudy
7:14 AM 66.2 °F - 64.4 °F 94% 29.88 in 1.0 mi Calm Calm - N/A   Mostly Cloudy
7:29 AM 68.0 °F - 66.2 °F 94% 29.89 in 2.0 mi Calm Calm - N/A   Overcast
7:36 AM 68.0 °F - 66.2 °F 94% 29.89 in 3.0 mi Calm Calm - N/A   Overcast
7:52 AM 69.1 °F - 66.0 °F 90% 29.88 in 4.0 mi Calm Calm - N/A   Overcast
8:01 AM 69.8 °F - 66.2 °F 88% 29.89 in 6.0 mi Calm Calm - N/A   Overcast
8:25 AM 69.8 °F - 64.4 °F 83% 29.89 in 9.0 mi WNW 3.5 mph - N/A   Mostly Cloudy
8:44 AM 71.6 °F - 64.4 °F 78% 29.89 in 10.0 mi North 3.5 mph - N/A   Scattered Clouds
8:52 AM 71.1 °F - 64.0 °F 78% 29.89 in 10.0 mi North 3.5 mph - N/A   Scattered Clouds
9:11 AM 71.6 °F - 62.6 °F 73% 29.90 in 10.0 mi NW 3.5 mph - N/A   Mostly Cloudy
9:24 AM 69.8 °F - 64.4 °F 83% 29.90 in 10.0 mi Calm Calm - N/A   Mostly Cloudy
9:52 AM 72.0 °F - 64.0 °F 76% 29.89 in 10.0 mi Calm Calm - N/A   Mostly Cloudy
10:52 AM 75.0 °F - 63.0 °F 66% 29.88 in 10.0 mi Calm Calm - N/A   Clear
11:52 AM 75.9 °F - 62.1 °F 62% 29.89 in 10.0 mi WNW 3.5 mph - N/A   Mostly Cloudy
12:52 PM 79.0 °F - 61.0 °F 54% 29.88 in 10.0 mi Variable 3.5 mph - N/A   Mostly Cloudy
1:52 PM 79.0 °F - 61.0 °F 54% 29.88 in 10.0 mi Calm Calm - N/A   Scattered Clouds
2:52 PM 80.1 °F 81.1 °F 61.0 °F 52% 29.87 in 10.0 mi NE 4.6 mph - N/A   Mostly Cloudy
3:52 PM 81.0 °F 81.7 °F 61.0 °F 50% 29.86 in 10.0 mi Calm Calm - N/A   Partly Cloudy
4:52 PM 82.0 °F 82.7 °F 61.0 °F 49% 29.86 in 10.0 mi Calm Calm - N/A   Clear
5:52 PM 79.0 °F - 63.0 °F 58% 29.86 in 10.0 mi East 5.8 mph - N/A   Overcast
6:52 PM 75.9 °F - 64.0 °F 67% 29.86 in 10.0 mi East 5.8 mph - N/A   Overcast
7:52 PM 73.9 °F - 64.0 °F 71% 29.87 in 10.0 mi East 8.1 mph - N/A   Mostly Cloudy
8:52 PM 73.9 °F - 64.0 °F 71% 29.88 in 10.0 mi ENE 6.9 mph - N/A   Overcast
9:52 PM 73.0 °F - 64.0 °F 73% 29.88 in 10.0 mi West 3.5 mph - N/A   Overcast
10:52 PM 75.0 °F - 63.0 °F 66% 29.88 in 10.0 mi SE 5.8 mph 16.1 mph N/A   Overcast
11:52 PM 75.9 °F - 62.1 °F 62% 29.88 in 10.0 mi East 10.4 mph 17.3 mph N/A   Overcast